Regional Weather Roundup
Issued by NWS

Home | Current Version | Previous Version | Graphics & Text | Print | Product List | Glossary On
Versions: 1 2 3 4 5 6 7 8 9 10 11 12 13 14 15 16 17 18 19 20 21 22 23 24 25 26 27 28 29 30 31 32 33 34 35 36 37 38 39 40 41 42 43 44 45 46 47 48 49 50
000
ASUS45 KABQ 161110
RWRNM
NEW MEXICO REGIONAL WEATHER ROUNDUP
NATIONAL WEATHER SERVICE ALBUQUERQUE NM
500 AM MDT WED AUG 16 2017

NOTE: "FAIR" MEANS FEW OR NO CLOUDS BELOW 12,000 FEET AGL WITH NO
       SIGNIFICANT WEATHER OR OBSTRUCTIONS TO VISION.

      THIS PRODUCT IS RELEASED AS TWO VERSIONS.  ONE VERSION NEAR
      THE TOP OF THE HOUR CONTAINING PRELIMINARY DATA FROM ALBUQUERQUE
      AND OTHER STATIONS.  A FINAL VERSION WITH ADDITIONAL DATA IS
      ISSUED ABOUT 10 MINUTES AFTER THE HOUR.

NMZ501-503-504-510>518-161200-
NORTHWEST PLATEAU/NORTHCENTRAL MOUNTAINS

CITY           SKY/WX    TMP DP  RH WIND       PRES   REMARKS
FARMINGTON     FAIR      49  33  54 NE7       30.10R
LOS ALAMOS     FAIR      62  28  28 CALM      30.20S
SANTA FE       FAIR      54  37  52 N6        30.14R
TAOS           MOCLDY    50  41  71 E5        30.21S
ANGEL FIRE     FAIR      41  34  76 CALM      30.25R

$$
NMZ402-403-502-505>509-161200-
WESTCENTRAL MOUNTAINS/SOUTHWEST MOUNTAINS

CITY           SKY/WX    TMP DP  RH WIND       PRES   REMARKS
GALLUP         FAIR      44  36  73 NE3       30.19R
GRANTS         MOCLDY    48  36  64 CALM      30.21R
SILVER CITY    FAIR      60  50  69 N10       30.13R

$$
NMZ407-409-411-412-161200-
SOUTHERN DESERTS

CITY           SKY/WX    TMP DP  RH WIND       PRES   REMARKS
DEMING         FAIR      64  55  72 SW3       30.08R
LAS CRUCES     FAIR      65  52  62 W7        30.07R
HOLLOMAN AFB   FAIR      70  56  60 SE5       30.02R
ALAMOGORDO     FAIR      66  54  63 E3        30.02S
T OR C         FAIR      68  45  43 NW10      30.07R

$$
NMZ519>523-161200-
CENTRAL VALLEYS/CENTRAL HIGHLANDS

CITY           SKY/WX    TMP DP  RH WIND       PRES   REMARKS
ALBUQUERQUE    FAIR      60  41  49 SE6       30.11R
MORIARTY ARPT  FAIR      49  45  85 NE3       30.16S
CLINES CORNERS FAIR      50  36  58 W12       30.19R
BELEN          FAIR      60  42  50 NW6       30.11R
SOCORRO        FAIR      62  45  54 W6        30.09R

$$
NMZ524>526-539-540-161200-
SOUTHCENTRAL MOUNTAINS

CITY           SKY/WX    TMP DP  RH WIND       PRES   REMARKS
RUIDOSO        FAIR      59  37  44 W12       30.21R

$$
NMZ527>531-161200-
NORTHEAST HIGHLANDS/NORTHEAST PLAINS

CITY           SKY/WX    TMP DP  RH WIND       PRES   REMARKS
LAS VEGAS      FAIR      55  35  47 CALM      30.15R
RATON          FAIR      56  48  74 N5        30.10R
CLAYTON        FAIR      58  53  84 N15       30.01R

$$
NMZ532>537-161200-
EASTCENTRAL PLAINS

CITY           SKY/WX    TMP DP  RH WIND       PRES   REMARKS
SANTA ROSA     FAIR      61  43  51 CALM      30.02R
TUCUMCARI      FAIR      60  56  86 SW6       29.94R
CANNON AFB     FAIR      63  63 100 CALM      29.99R
CLOVIS AIRPORT NOT AVBL

$$
NMZ028-029-538-161200-
SOUTHEAST PLAINS

CITY           SKY/WX    TMP DP  RH WIND       PRES   REMARKS
ROSWELL        FAIR      67  59  75 NW5       29.95R
ARTESIA        FAIR      68  57  68 NW9       29.95R
CARLSBAD       FAIR      70  65  84 W10       29.91R
HOBBS          FAIR      64  63  94 SW3       29.95R


$$




USA.gov is the U.S. government's official web portal to all federal, state and local government web resources and services.